Time,TemperatureF,DewpointF,PressureIn,WindDirection,WindDirectionDegrees,WindSpeedMPH,WindSpeedGustMPH,Humidity,HourlyPrecipIn,Conditions,Clouds,dailyrainin,SoftwareType,DateUTC
2013-09-25 00:13:00,69.3,66.0,29.77,North,350,0.0,-999.0,88,-99.99,,,0.00,weatherlink.com 1.10,2013-09-25 05:13:00,
2013-09-25 00:28:00,68.9,65.0,29.76,North,350,0.0,-999.0,88,-99.99,,,0.00,weatherlink.com 1.10,2013-09-25 05:28:00,
2013-09-25 00:43:00,68.6,65.0,29.76,North,350,0.0,-999.0,88,-99.99,,,0.00,weatherlink.com 1.10,2013-09-25 05:43:00,
2013-09-25 00:58:00,68.3,65.0,29.76,North,350,0.0,-999.0,88,-99.99,,,0.00,weatherlink.com 1.10,2013-09-25 05:58:00,
2013-09-25 01:13:00,67.9,65.0,29.76,North,350,0.0,-999.0,89,-99.99,,,0.00,weatherlink.com 1.10,2013-09-25 06:13:00,
2013-09-25 01:28:00,67.6,64.0,29.76,North,350,0.0,-999.0,89,-99.99,,,0.00,weatherlink.com 1.10,2013-09-25 06:28:00,
2013-09-25 01:43:00,67.3,64.0,29.76,North,350,0.0,-999.0,89,-99.99,,,0.00,weatherlink.com 1.10,2013-09-25 06:43:00,
2013-09-25 01:58:00,66.9,64.0,29.76,North,350,0.0,-999.0,89,-99.99,,,0.00,weatherlink.com 1.10,2013-09-25 06:58:00,
2013-09-25 02:13:00,66.6,63.0,29.76,North,350,0.0,-999.0,89,-99.99,,,0.00,weatherlink.com 1.10,2013-09-25 07:13:00,
2013-09-25 02:28:00,66.4,64.0,29.75,North,350,0.0,-999.0,90,-99.99,,,0.00,weatherlink.com 1.10,2013-09-25 07:28:00,
2013-09-25 02:43:00,66.3,63.0,29.75,North,350,0.0,-999.0,90,-99.99,,,0.00,weatherlink.com 1.10,2013-09-25 07:43:00,
2013-09-25 02:58:00,66.1,63.0,29.75,North,350,0.0,-999.0,90,-99.99,,,0.00,weatherlink.com 1.10,2013-09-25 07:58:00,
2013-09-25 03:13:00,66.0,63.0,29.75,North,350,0.0,-999.0,91,-99.99,,,0.00,weatherlink.com 1.10,2013-09-25 08:13:00,
2013-09-25 03:28:00,65.8,64.0,29.75,North,350,0.0,-999.0,92,-99.99,,,0.00,weatherlink.com 1.10,2013-09-25 08:28:00,
2013-09-25 03:43:00,65.6,63.0,29.75,North,350,0.0,-999.0,92,-99.99,,,0.00,weatherlink.com 1.10,2013-09-25 08:43:00,
2013-09-25 03:58:00,65.6,63.0,29.75,North,350,0.0,-999.0,92,-99.99,,,0.00,weatherlink.com 1.10,2013-09-25 08:58:00,
2013-09-25 04:13:00,65.5,64.0,29.75,North,350,0.0,-999.0,93,-99.99,,,0.00,weatherlink.com 1.10,2013-09-25 09:13:00,
2013-09-25 04:28:00,65.3,63.0,29.75,North,350,0.0,-999.0,93,-99.99,,,0.00,weatherlink.com 1.10,2013-09-25 09:28:00,
2013-09-25 04:43:00,65.0,63.0,29.75,North,350,0.0,-999.0,93,-99.99,,,0.00,weatherlink.com 1.10,2013-09-25 09:43:00,
2013-09-25 04:58:00,65.0,63.0,29.76,NNW,347,1.0,-999.0,93,-99.99,,,0.00,weatherlink.com 1.10,2013-09-25 09:58:00,
2013-09-25 05:13:00,65.0,63.0,29.77,NNW,347,0.0,-999.0,94,-99.99,,,0.00,weatherlink.com 1.10,2013-09-25 10:13:00,
2013-09-25 05:28:00,65.0,63.0,29.77,NNW,347,0.0,-999.0,94,-99.99,,,0.00,weatherlink.com 1.10,2013-09-25 10:28:00,
2013-09-25 05:43:00,64.7,63.0,29.77,NNW,347,0.0,-999.0,94,-99.99,,,0.00,weatherlink.com 1.10,2013-09-25 10:43:00,
2013-09-25 05:58:00,64.3,63.0,29.77,NNW,347,0.0,-999.0,94,-99.99,,,0.00,weatherlink.com 1.10,2013-09-25 10:58:00,
2013-09-25 06:13:00,64.2,63.0,29.77,NNW,347,0.0,-999.0,94,-99.99,,,0.00,weatherlink.com 1.10,2013-09-25 11:13:00,
2013-09-25 06:28:00,64.2,63.0,29.78,NNW,347,0.0,-999.0,94,-99.99,,,0.00,weatherlink.com 1.10,2013-09-25 11:28:00,
2013-09-25 06:43:00,64.2,63.0,29.78,NNW,347,0.0,-999.0,94,-99.99,,,0.00,weatherlink.com 1.10,2013-09-25 11:43:00,
2013-09-25 06:58:00,64.0,62.0,29.78,NNW,347,0.0,-999.0,94,-99.99,,,0.00,weatherlink.com 1.10,2013-09-25 11:58:00,
2013-09-25 07:13:00,64.0,63.0,29.78,NNW,347,0.0,-999.0,95,-99.99,,,0.00,weatherlink.com 1.10,2013-09-25 12:13:00,
2013-09-25 07:28:00,64.0,63.0,29.79,NNW,347,0.0,-999.0,95,-99.99,,,0.00,weatherlink.com 1.10,2013-09-25 12:28:00,
2013-09-25 07:43:00,64.0,63.0,29.80,NNW,347,0.0,-999.0,95,-99.99,,,0.00,weatherlink.com 1.10,2013-09-25 12:43:00,
2013-09-25 07:58:00,64.5,63.0,29.80,NNW,347,0.0,-999.0,95,-99.99,,,0.00,weatherlink.com 1.10,2013-09-25 12:58:00,
2013-09-25 08:13:00,66.3,65.0,29.80,NNW,347,0.0,-999.0,96,-99.99,,,0.00,weatherlink.com 1.10,2013-09-25 13:13:00,
2013-09-25 08:28:00,68.8,68.0,29.80,NNW,347,0.0,-999.0,96,-99.99,,,0.00,weatherlink.com 1.10,2013-09-25 13:28:00,
2013-09-25 08:43:00,70.3,69.0,29.80,NNW,347,1.0,-999.0,96,-99.99,,,0.00,weatherlink.com 1.10,2013-09-25 13:43:00,
2013-09-25 08:58:00,70.9,70.0,29.81,NNW,346,0.0,-999.0,95,-99.99,,,0.00,weatherlink.com 1.10,2013-09-25 13:58:00,
2013-09-25 09:13:00,71.1,70.0,29.81,NW,318,3.0,-999.0,95,-99.99,,,0.00,weatherlink.com 1.10,2013-09-25 14:13:00,
2013-09-25 09:28:00,71.6,70.0,29.81,NW,322,0.0,-999.0,94,-99.99,,,0.00,weatherlink.com 1.10,2013-09-25 14:28:00,
2013-09-25 09:43:00,71.6,69.0,29.81,NNW,329,0.0,-999.0,92,-99.99,,,0.00,weatherlink.com 1.10,2013-09-25 14:43:00,
2013-09-25 09:58:00,74.2,68.0,29.81,NNW,335,0.0,-999.0,82,-99.99,,,0.00,weatherlink.com 1.10,2013-09-25 14:58:00,
2013-09-25 10:13:00,76.5,67.0,29.81,NNW,335,2.0,-999.0,72,-99.99,,,0.00,weatherlink.com 1.10,2013-09-25 15:13:00,
2013-09-25 10:28:00,77.9,67.0,29.81,NNW,335,0.0,-999.0,69,-99.99,,,0.00,weatherlink.com 1.10,2013-09-25 15:28:00,
2013-09-25 10:43:00,79.4,67.0,29.81,NNW,343,2.0,-999.0,65,-99.99,,,0.00,weatherlink.com 1.10,2013-09-25 15:43:00,
2013-09-25 10:58:00,80.9,68.0,29.81,North,11,0.0,-999.0,64,-99.99,,,0.00,weatherlink.com 1.10,2013-09-25 15:58:00,
2013-09-25 11:13:00,80.9,66.0,29.81,NNE,13,0.0,-999.0,61,-99.99,,,0.00,weatherlink.com 1.10,2013-09-25 16:13:00,
2013-09-25 11:28:00,82.4,66.0,29.80,West,268,0.0,-999.0,58,-99.99,,,0.00,weatherlink.com 1.10,2013-09-25 16:28:00,
2013-09-25 11:58:00,84.5,63.0,29.80,NW,311,0.0,-999.0,49,-99.99,,,0.00,weatherlink.com 1.10,2013-09-25 16:58:00,
2013-09-25 12:13:00,84.7,62.0,29.79,North,0,1.0,-999.0,46,-99.99,,,0.00,weatherlink.com 1.10,2013-09-25 17:13:00,
2013-09-25 12:28:00,85.5,63.0,29.79,NNW,342,1.0,-999.0,47,-99.99,,,0.00,weatherlink.com 1.10,2013-09-25 17:28:00,
2013-09-25 12:43:00,85.9,62.0,29.78,NNW,346,2.0,-999.0,44,-99.99,,,0.00,weatherlink.com 1.10,2013-09-25 17:43:00,
2013-09-25 12:58:00,85.9,62.0,29.78,North,0,8.0,-999.0,45,-99.99,,,0.00,weatherlink.com 1.10,2013-09-25 17:58:00,
2013-09-25 13:13:00,86.5,60.0,29.78,North,1,1.0,-999.0,41,-99.99,,,0.00,weatherlink.com 1.10,2013-09-25 18:13:00,
2013-09-25 13:28:00,87.0,61.0,29.77,North,349,0.0,-999.0,42,-99.99,,,0.00,weatherlink.com 1.10,2013-09-25 18:28:00,
2013-09-25 13:43:00,87.0,62.0,29.77,NW,325,2.0,-999.0,43,-99.99,,,0.00,weatherlink.com 1.10,2013-09-25 18:43:00,
2013-09-25 13:58:00,87.8,63.0,29.76,NNW,336,0.0,-999.0,44,-99.99,,,0.00,weatherlink.com 1.10,2013-09-25 18:58:00,
2013-09-25 14:13:00,87.6,61.0,29.76,NNW,336,2.0,-999.0,41,-99.99,,,0.00,weatherlink.com 1.10,2013-09-25 19:13:00,
2013-09-25 14:28:00,87.6,60.0,29.75,NNW,328,2.0,-999.0,40,-99.99,,,0.00,weatherlink.com 1.10,2013-09-25 19:28:00,
2013-09-25 14:58:00,88.2,60.0,29.74,West,267,1.0,-999.0,38,-99.99,,,0.00,weatherlink.com 1.10,2013-09-25 19:58:00,
2013-09-25 15:13:00,88.0,59.0,29.74,NW,325,2.0,-999.0,38,-99.99,,,0.00,weatherlink.com 1.10,2013-09-25 20:13:00,
2013-09-25 15:28:00,87.8,61.0,29.74,North,352,0.0,-999.0,40,-99.99,,,0.00,weatherlink.com 1.10,2013-09-25 20:28:00,
2013-09-25 15:47:00,87.6,57.0,29.73,West,263,3.0,-999.0,35,-99.99,,,0.00,weatherlink.com 1.10,2013-09-25 20:47:00,
2013-09-25 16:02:00,87.8,58.0,29.73,NNE,24,0.0,-999.0,37,-99.99,,,0.00,weatherlink.com 1.10,2013-09-25 21:02:00,
2013-09-25 16:17:00,87.6,61.0,29.73,North,8,0.0,-999.0,41,-99.99,,,0.00,weatherlink.com 1.10,2013-09-25 21:17:00,
2013-09-25 16:32:00,87.4,60.0,29.73,North,359,0.0,-999.0,40,-99.99,,,0.00,weatherlink.com 1.10,2013-09-25 21:32:00,
2013-09-25 16:47:00,87.2,60.0,29.73,NW,326,2.0,-999.0,40,-99.99,,,0.00,weatherlink.com 1.10,2013-09-25 21:47:00,
2013-09-25 17:02:00,86.7,58.0,29.73,North,349,2.0,-999.0,38,-99.99,,,0.00,weatherlink.com 1.10,2013-09-25 22:02:00,
2013-09-25 17:17:00,86.5,59.0,29.73,NW,323,3.0,-999.0,40,-99.99,,,0.00,weatherlink.com 1.10,2013-09-25 22:17:00,
2013-09-25 17:32:00,85.7,59.0,29.73,North,359,0.0,-999.0,41,-99.99,,,0.00,weatherlink.com 1.10,2013-09-25 22:32:00,
2013-09-25 17:47:00,85.5,59.0,29.73,NNW,329,0.0,-999.0,41,-99.99,,,0.00,weatherlink.com 1.10,2013-09-25 22:47:00,
2013-09-25 18:04:00,84.3,-99.9,29.73,North,0,0.0,-999.0,-999,-99.99,,,0.00,weatherlink.com 1.10,2013-09-25 23:04:00,
2013-09-25 18:19:00,84.1,60.0,29.73,North,0,0.0,-999.0,44,-99.99,,,0.00,weatherlink.com 1.10,2013-09-25 23:19:00,
2013-09-25 18:34:00,83.8,61.0,29.73,North,0,0.0,-999.0,46,-99.99,,,0.00,weatherlink.com 1.10,2013-09-25 23:34:00,
2013-09-25 18:53:00,82.6,-99.9,29.73,North,0,0.0,-999.0,-999,-99.99,,,0.00,weatherlink.com 1.10,2013-09-25 23:53:00,
2013-09-25 19:08:00,81.2,62.0,29.73,North,0,0.0,-999.0,52,-99.99,,,0.00,weatherlink.com 1.10,2013-09-26 00:08:00,
2013-09-25 19:17:00,80.3,-99.9,29.73,North,0,0.0,-999.0,-999,-99.99,,,0.00,weatherlink.com 1.10,2013-09-26 00:17:00,
2013-09-25 19:32:00,78.6,62.0,29.74,North,0,0.0,-999.0,58,-99.99,,,0.00,weatherlink.com 1.10,2013-09-26 00:32:00,
2013-09-25 19:47:00,77.2,63.0,29.74,North,0,0.0,-999.0,61,-99.99,,,0.00,weatherlink.com 1.10,2013-09-26 00:47:00,
2013-09-25 20:02:00,75.8,62.0,29.74,North,0,0.0,-999.0,63,-99.99,,,0.00,weatherlink.com 1.10,2013-09-26 01:02:00,
2013-09-25 20:17:00,74.7,63.0,29.75,North,0,0.0,-999.0,66,-99.99,,,0.00,weatherlink.com 1.10,2013-09-26 01:17:00,
2013-09-25 20:32:00,73.7,62.0,29.75,North,0,0.0,-999.0,67,-99.99,,,0.00,weatherlink.com 1.10,2013-09-26 01:32:00,
2013-09-25 20:47:00,72.7,62.0,29.76,North,0,0.0,-999.0,68,-99.99,,,0.00,weatherlink.com 1.10,2013-09-26 01:47:00,
2013-09-25 21:02:00,71.8,62.0,29.76,North,0,0.0,-999.0,70,-99.99,,,0.00,weatherlink.com 1.10,2013-09-26 02:02:00,
2013-09-25 21:17:00,71.1,62.0,29.77,North,0,0.0,-999.0,73,-99.99,,,0.00,weatherlink.com 1.10,2013-09-26 02:17:00,
2013-09-25 21:30:00,70.6,62.0,29.75,North,0,0.0,-999.0,74,-99.99,,,0.00,weatherlink.com 1.10,2013-09-26 02:30:00,
2013-09-25 21:45:00,70.1,61.0,29.75,North,0,0.0,-999.0,74,-99.99,,,0.00,weatherlink.com 1.10,2013-09-26 02:45:00,
2013-09-25 22:00:00,69.6,62.0,29.75,North,0,0.0,-999.0,76,-99.99,,,0.00,weatherlink.com 1.10,2013-09-26 03:00:00,
2013-09-25 22:15:00,69.1,61.0,29.75,North,0,0.0,-999.0,76,-99.99,,,0.00,weatherlink.com 1.10,2013-09-26 03:15:00,
2013-09-25 22:30:00,68.6,61.0,29.76,North,0,0.0,-999.0,77,-99.99,,,0.00,weatherlink.com 1.10,2013-09-26 03:30:00,
2013-09-25 22:45:00,68.1,61.0,29.76,North,0,0.0,-999.0,77,-99.99,,,0.00,weatherlink.com 1.10,2013-09-26 03:45:00,
2013-09-25 23:00:00,67.8,61.0,29.76,North,0,0.0,-999.0,79,-99.99,,,0.00,weatherlink.com 1.10,2013-09-26 04:00:00,
2013-09-25 23:15:00,67.3,61.0,29.76,North,0,0.0,-999.0,80,-99.99,,,0.00,weatherlink.com 1.10,2013-09-26 04:15:00,
2013-09-25 23:30:00,66.8,60.0,29.76,North,0,0.0,-999.0,80,-99.99,,,0.00,weatherlink.com 1.10,2013-09-26 04:30:00,
2013-09-25 23:45:00,66.4,60.0,29.76,North,0,0.0,-999.0,81,-99.99,,,0.00,weatherlink.com 1.10,2013-09-26 04:45:00,